Location: ??? ?????
(30.6482°N, 60.5850°E)
Time: 07:56:34
(UTC+00:00)

ADEOS II - Pass Details

Date: 09 April 2020
Orbit: 799 x 802 km, 98.5° (Epoch: 25 May)

Event Time Altitude Azimuth Distance (km) Brightness Sun altitude
Rises 22:29:44 0° 8° (N) 3,311 5.9 -37.1°
Reaches altitude 10° 22:32:05 10° 6° (N) 2,377 5.0 -36.7°
Enters shadow 22:33:45 21° 3° (N) 1,736 4.1 -36.4°
